GFSSW_925_temp_057.txt.gz
Temp
16 16 16 17 17 17 17 17 18 18 18 19 19 19 20 20 21 21 21 22 22 23 23 24 24 24 23 21 20 17 17 18 20 19 23 21 23 21 19 18 17 16 16 18 19
15 16 16 16 17 17 18 18 18 18 18 19 19 19 19 20 21 21 22 22 22 22 23 23 22 23 19 22 19 17 16 19 20 20 21 21 22 20 21 19 18 17 16 16 17
15 14 15 16 16 17 17 17 18 18 18 19 19 19 20 20 21 22 22 22 22 22 22 22 22 22 22 21 21 19 19 20 22 21 21 21 22 21 19 20 17 17 15 15 15
14 14 15 16 16 17 17 17 17 18 18 19 19 19 20 20 22 21 22 22 22 22 22 22 22 22 20 22 21 22 21 21 22 21 21 21 21 21 19 21 18 16 15 14 13
11 15 15 15 16 16 16 17 17 17 18 18 19 19 20 19 20 21 22 22 22 22 22 22 22 21 21 21 21 22 21 21 21 21 21 21 21 20 19 17 14 14 14 13 12
13 11 13 16 15 15 16 16 17 17 17 18 18 19 19 20 20 21 21 21 21 22 22 22 21 21 21 21 21 21 20 21 20 20 20 20 20 20 19 14 13 13 13 12 12
11 12 13 12 15 16 15 16 16 17 17 17 17 17 17 18 20 20 21 21 21 21 21 21 21 22 21 21 20 20 21 19 19 19 20 19 19 18 18 13 13 13 12 11 11
12 12 11 13 13 14 16 16 16 16 17 17 17 17 16 19 19 20 20 20 20 21 21 21 22 19 20 20 17 20 17 19 20 17 19 20 18 19 14 13 13 12 10 10 10
12 12 12 12 12 12 13 16 16 16 16 17 16 16 17 18 18 19 19 20 20 20 21 21 20 17 18 17 16 15 17 17 18 16 18 18 18 19 13 12 13 11 10 10 10
14 12 12 12 12 12 13 14 15 16 15 15 15 16 16 17 18 18 19 20 19 19 19 18 14 15 13 15 17 17 17 16 18 18 17 18 16 16 15 12 14 11 10 10 10
14 13 13 12 12 12 14 14 14 13 13 15 16 17 16 17 17 18 19 19 18 17 17 16 16 15 16 15 18 17 17 17 18 19 18 16 16 18 15 12 12 12 11 11 11
12 12 12 13 11 11 12 11 14 14 13 14 13 14 16 17 16 16 18 17 17 16 15 15 15 16 17 16 17 17 18 16 16 17 16 16 15 15 15 14 14 15 14 12 12
11 12 12 12 12 11 12 14 14 14 13 14 13 14 15 16 16 15 16 15 16 14 14 15 18 16 17 16 16 16 15 16 17 17 15 16 15 15 16 15 14 14 16 15 14
11 11 12 12 11 10 11 14 13 13 12 14 14 14 14 15 16 16 17 16 15 15 14 15 16 17 16 16 16 15 15 16 17 17 15 16 16 17 16 16 15 16 15 15 14
10 10 11 11 11 11 13 12 13 14 14 15 14 15 13 17 15 14 15 16 14 14 15 16 15 16 15 16 16 16 16 15 17 15 16 15 14 17 16 16 16 18 16 16 15
9 10 10 10 10 11 13 12 12 11 12 15 14 14 14 15 14 13 15 16 15 15 16 16 16 15 16 16 16 15 16 14 11 12 13 17 14 19 16 18 18 18 17 14 11
9 9 9 10 11 11 12 12 10 11 13 15 13 13 14 13 13 13 13 14 15 15 15 15 15 16 16 16 15 17 16 14 13 11 15 12 13 20 17 17 17 18 17 14 10
8 8 9 9 10 11 10 10 11 12 11 14 13 13 14 14 13 12 12 13 13 15 14 16 16 15 14 18 16 15 15 13 13 12 13 12 12 15 14 16 14 13 13 12 8
7 8 8 10 10 10 10 11 12 10 12 13 14 14 13 13 13 13 11 12 14 14 17 14 15 15 14 16 18 14 14 16 16 4 9 15 14 15 14 13 13 13 12 9 8
7 7 7 10 10 10 11 12 12 12 13 15 14 14 13 12 13 11 11 12 14 14 15 16 15 13 14 16 14 15 14 14 11 12 10 14 13 16 17 16 14 14 12 9 7
6 7 10 10 9 9 11 11 13 12 15 15 15 14 13 12 14 11 13 14 13 13 15 16 15 13 14 13 13 14 13 14 13 11 11 10 16 13 17 16 17 15 13 10 7
6 7 11 9 9 10 10 12 12 13 14 14 14 15 13 13 13 13 12 14 13 13 14 14 14 11 12 13 12 15 14 14 13 11 10 10 18 15 14 14 14 15 14 10 7
5 6 10 9 9 9 10 12 12 13 13 14 14 14 14 14 13 13 12 12 13 14 13 14 13 10 12 12 12 12 13 15 13 10 12 13 18 12 13 13 13 13 14 9 6
4 5 5 7 8 9 10 11 11 12 12 12 13 14 14 14 15 12 12 13 13 14 13 15 12 12 15 15 13 12 12 13 15 14 15 16 18 18 17 14 15 13 11 8 6
4 5 5 6 7 7 8 10 10 10 11 12 11 12 13 14 14 14 12 12 12 12 13 14 10 12 14 14 13 12 12 13 14 16 15 18 17 19 18 14 16 14 12 8 6
3 3 4 4 6 7 8 8 8 9 11 12 11 12 12 11 12 13 14 15 15 12 13 12 11 11 12 13 12 12 12 12 14 15 16 17 17 18 18 15 15 14 12 9 8
2 4 4 6 5 5 7 8 9 10 9 10 10 11 11 10 10 11 11 11 12 14 11 11 11 11 13 13 12 12 13 14 14 15 16 15 17 16 17 15 15 14 11 10 10

GFSSW_925_temp_060.txt.gz
Temp
14 16 16 16 16 16 17 17 18 18 18 19 19 19 20 21 21 21 21 21 22 22 23 23 23 23 22 19 18 16 17 18 20 19 22 20 22 19 17 17 17 17 16 17 17
11 14 16 16 16 16 16 17 17 18 18 19 19 19 20 21 21 20 21 21 22 22 23 23 22 22 18 20 17 17 16 19 18 18 22 20 21 18 20 19 19 17 16 15 16
11 11 13 16 16 16 16 17 17 17 18 18 19 20 20 21 21 21 21 21 21 22 22 22 22 22 21 20 20 18 19 19 21 21 20 20 21 18 18 19 18 17 16 13 14
12 12 12 13 16 16 16 17 17 17 18 18 19 20 20 20 22 21 21 21 21 22 22 22 21 21 20 21 20 22 20 20 21 20 20 20 19 20 17 20 17 16 15 13 12
13 13 12 12 13 16 16 16 17 17 18 18 19 19 20 20 20 20 21 21 21 22 21 21 21 20 20 20 21 21 20 21 20 20 20 20 21 20 18 17 15 14 13 12 12
12 13 13 13 13 13 16 17 16 17 17 18 18 19 19 20 20 20 21 21 21 21 21 21 20 20 19 20 20 20 20 20 19 20 20 20 20 20 19 14 15 13 12 11 11
11 11 13 13 13 14 15 15 16 17 17 17 17 18 17 19 19 20 21 21 21 21 20 20 21 21 20 20 19 19 21 19 19 19 20 19 19 18 18 14 15 13 12 11 11
13 12 11 13 13 14 15 15 16 16 17 17 17 17 17 19 19 19 20 20 20 21 21 21 21 18 19 18 16 18 16 18 19 17 19 19 17 18 15 14 14 12 11 10 10
12 13 12 12 13 13 15 15 16 16 16 17 17 16 17 18 18 19 19 20 20 20 20 21 19 16 17 16 16 14 18 17 17 16 18 18 18 19 13 12 14 12 11 10 10
13 12 13 13 13 13 14 15 15 16 15 15 15 16 16 18 17 18 19 19 18 18 19 17 13 14 13 15 16 17 17 16 17 18 17 17 15 15 15 12 13 12 11 10 10
13 12 12 12 12 15 15 15 14 14 13 15 16 17 16 16 17 17 18 18 18 17 17 15 15 15 16 15 17 16 17 17 17 17 17 15 15 16 16 12 12 11 11 11 11
12 12 12 12 12 12 15 12 13 13 12 14 13 14 15 16 16 16 18 17 17 16 15 15 14 16 16 15 17 17 17 16 15 16 16 15 15 16 14 14 14 15 14 13 13
11 12 12 12 11 12 12 13 13 13 12 14 12 13 15 16 16 15 15 15 15 14 14 14 17 15 16 15 16 15 15 15 16 16 14 14 14 14 15 14 14 13 15 14 14
10 10 11 12 11 11 11 14 13 13 13 13 14 14 14 14 16 15 17 16 15 15 13 14 15 16 15 15 16 15 14 15 16 16 14 15 14 16 17 16 14 15 13 14 14
9 9 10 11 11 10 13 13 12 13 14 15 13 15 13 16 15 14 14 16 14 14 15 16 14 15 15 15 15 16 14 14 16 14 14 13 15 17 15 16 17 17 16 15 14
9 9 9 10 10 11 11 12 13 11 12 14 14 14 14 15 13 13 15 15 14 15 15 15 15 15 16 15 15 13 15 13 11 12 13 13 14 18 15 17 18 18 16 14 13
8 8 9 10 10 11 10 10 11 12 13 14 13 13 14 13 13 13 13 13 15 15 14 15 14 15 15 15 15 16 16 15 13 11 15 12 13 19 17 16 16 18 17 15 13
7 8 8 9 10 10 10 10 12 12 11 13 12 12 13 13 13 12 12 12 13 15 13 15 16 14 14 17 15 14 15 13 13 12 13 11 12 14 14 15 15 13 13 13 11
7 7 8 10 10 10 10 11 12 11 12 12 13 13 12 12 13 12 11 11 13 12 16 13 14 14 14 16 17 14 14 16 16 3 9 16 14 15 14 13 13 13 12 11 10
6 7 7 10 10 9 10 11 12 12 12 13 14 13 11 11 13 11 10 12 13 13 15 16 14 13 14 15 14 15 13 14 11 12 10 14 14 15 18 17 15 14 13 11 9
6 7 9 9 9 9 9 11 11 12 14 14 13 14 13 12 13 11 13 13 12 13 15 14 14 13 13 12 12 13 13 13 12 11 11 10 18 12 16 16 17 16 14 12 10
6 6 9 8 8 9 9 10 12 12 13 13 14 14 14 12 12 12 12 13 12 13 13 13 13 11 12 12 11 14 14 13 13 11 9 10 18 15 14 13 13 15 15 13 10
5 6 8 8 8 8 9 10 11 12 12 11 13 14 14 13 13 13 12 12 13 14 13 13 13 9 12 12 11 12 12 14 12 10 12 12 18 12 13 15 14 13 13 11 9
3 3 3 5 5 8 9 9 9 11 11 12 12 12 12 14 15 13 12 12 12 14 13 14 11 12 15 14 12 11 11 12 15 13 15 14 18 18 17 16 15 13 11 11 8
4 3 4 3 6 6 7 7 8 9 10 11 12 13 13 12 13 14 12 12 12 12 13 13 10 11 13 13 12 12 12 12 14 16 14 17 16 18 18 15 16 14 14 11 9
4 3 3 4 6 5 7 7 7 7 10 11 11 12 12 12 12 13 14 13 14 11 13 12 11 10 11 11 12 12 12 12 13 15 15 16 16 19 16 15 14 14 15 12 9
3 2 3 5 4 4 6 7 8 8 9 8 8 9 10 11 11 11 10 9 9 10 11 11 11 10 13 12 11 11 11 13 13 14 15 14 16 17 16 14 16 14 12 11 11

GFSSW_925_temp_063.txt.gz
Temp
11 11 12 14 16 16 17 17 17 17 18 18 19 19 20 21 21 21 20 21 21 22 23 23 23 22 22 18 17 16 18 19 20 18 22 17 20 17 17 17 16 16 17 17 17
11 12 12 13 15 16 17 17 17 18 18 18 19 19 20 21 21 20 21 21 21 22 23 23 21 21 18 19 17 18 18 20 18 17 21 19 20 18 19 18 18 17 15 16 15
12 12 13 13 12 14 16 17 17 18 18 18 19 19 20 20 21 20 21 21 21 22 22 22 22 21 20 20 19 17 20 19 20 19 20 20 20 17 18 19 19 19 17 13 13
13 13 14 15 15 15 15 16 17 17 18 18 19 19 20 20 21 20 21 21 21 21 22 22 20 20 19 21 19 22 19 19 20 20 19 19 17 19 17 21 18 17 16 12 13
14 14 13 15 15 16 16 16 16 17 17 18 19 20 20 20 20 20 20 21 21 21 21 20 21 20 20 19 20 21 19 20 19 19 19 18 19 19 17 17 16 15 13 13 13
11 13 14 13 14 16 16 16 16 16 17 17 18 19 19 20 19 20 20 20 21 21 20 21 19 19 18 19 20 19 19 19 19 19 19 20 19 19 19 15 16 14 14 13 13
12 11 12 13 14 15 16 16 16 16 16 17 17 18 17 19 19 20 20 20 21 21 20 20 20 21 19 19 18 18 20 19 19 19 20 19 19 18 18 15 16 15 13 12 12
12 12 12 12 13 14 15 16 16 17 17 17 17 17 17 18 19 19 20 20 20 21 21 20 21 17 18 17 16 17 16 19 19 17 18 19 18 18 15 15 17 15 13 12 12
12 12 12 12 13 13 14 16 16 16 17 17 17 16 18 18 18 18 19 20 20 20 20 20 19 15 17 16 16 14 18 17 17 16 18 18 18 18 14 13 14 14 13 12 12
13 12 12 12 12 13 14 15 16 16 15 16 15 16 16 17 17 17 18 19 18 18 18 16 13 14 13 15 17 17 17 16 17 18 16 17 16 16 15 14 15 14 13 12 12
12 12 12 13 12 13 14 14 13 14 14 16 16 16 16 16 16 17 18 18 17 16 17 14 15 16 16 15 17 15 17 18 16 16 17 15 15 16 15 14 13 14 14 14 13
12 12 12 12 12 12 13 12 13 13 12 13 12 13 15 16 16 15 17 17 17 16 15 14 15 15 15 14 16 16 16 16 15 15 16 15 15 17 15 17 17 18 17 16 16
10 11 12 12 11 12 12 13 13 14 12 13 12 13 15 16 16 15 15 14 15 13 13 14 17 14 15 14 15 14 15 15 17 16 14 13 13 13 15 15 16 15 16 15 16
9 10 11 11 11 11 12 13 13 15 13 13 14 14 14 14 16 15 16 15 14 15 12 14 15 15 14 15 15 15 14 15 16 16 15 14 15 14 15 17 15 15 15 15 16
9 9 10 11 11 11 11 12 13 14 13 14 14 14 13 15 14 14 14 16 13 14 14 16 13 14 15 15 14 15 13 14 15 14 13 13 14 16 15 16 16 18 16 16 14
8 9 9 10 10 10 11 12 13 12 12 14 13 13 13 14 13 13 15 14 14 14 15 15 14 14 15 14 15 12 13 12 10 12 13 14 15 21 15 17 18 17 17 16 13
7 8 9 9 10 10 11 11 11 12 13 13 13 12 13 13 13 13 13 13 14 14 14 14 14 14 14 14 14 15 15 14 13 11 15 11 14 21 16 15 17 18 19 16 13
7 8 8 9 9 10 10 11 11 12 11 12 12 12 13 12 12 12 12 12 13 14 12 15 15 13 13 16 14 13 15 14 13 12 14 11 12 16 15 14 14 14 14 13 12
7 7 8 10 10 9 10 11 11 10 12 12 13 13 12 12 12 12 10 11 13 12 15 13 14 14 13 15 16 13 14 16 16 3 10 14 14 15 13 14 13 13 12 11 11
6 7 7 9 9 9 10 11 11 12 12 13 14 13 12 11 12 11 10 12 13 12 15 15 14 13 13 15 14 15 14 14 11 12 10 14 14 18 19 17 16 14 14 12 11
6 5 8 8 8 8 9 10 11 12 13 14 13 14 13 11 11 10 12 13 12 12 14 14 14 12 13 12 12 13 13 13 12 11 11 11 17 13 17 16 16 15 14 13 11
5 5 8 8 7 8 8 9 11 11 12 12 12 13 13 12 12 11 11 14 11 12 13 13 13 12 12 12 11 12 13 12 12 11 9 10 18 15 15 15 13 13 15 14 12
4 6 7 7 6 7 8 9 10 10 11 12 12 12 13 13 13 11 11 12 12 13 13 13 12 8 12 12 11 11 11 13 11 10 11 13 18 12 13 15 14 13 13 11 11
3 3 3 4 5 7 7 8 8 10 9 11 11 11 11 10 13 12 11 12 11 13 13 14 12 12 14 14 11 11 10 11 14 11 15 13 18 18 17 17 14 14 12 11 10
4 3 3 3 4 5 7 7 8 8 9 10 9 10 10 11 12 12 11 11 11 11 12 14 12 11 13 13 12 12 12 12 14 15 15 17 16 18 17 15 17 16 13 12 11
4 4 3 3 5 5 6 6 6 7 8 9 9 10 10 10 11 12 12 12 13 10 11 12 12 11 11 12 12 12 12 11 13 14 15 16 16 19 18 15 14 14 16 16 13
4 2 3 4 3 4 5 6 6 7 7 8 8 7 7 8 9 9 9 9 9 9 7 9 11 10 12 12 11 11 12 12 13 13 15 14 16 17 16 14 15 13 12 13 12

GFSSW_925_temp_069.txt.gz
Temp
14 14 15 15 15 16 16 16 17 17 18 18 18 19 19 20 20 20 23 22 22 22 22 23 24 24 25 26 26 26 28 29 29 29 30 28 28 27 27 27 26 26 26 24 25
13 15 15 15 16 16 16 16 17 17 18 18 18 19 19 20 19 22 21 21 21 22 22 24 26 26 27 27 27 28 28 29 30 30 29 28 28 28 26 27 27 26 24 21 22
13 15 15 15 15 16 16 16 16 17 17 18 18 19 20 20 23 23 21 21 21 22 21 24 26 27 27 27 27 28 28 29 28 28 27 28 27 27 27 28 28 28 28 22 21
13 14 15 15 15 15 16 16 16 17 17 18 18 19 20 19 24 20 20 21 21 21 22 24 26 26 27 26 27 26 27 27 25 24 25 26 27 26 26 29 28 29 29 24 23
12 14 15 15 15 15 16 16 16 17 17 18 18 19 19 23 24 20 20 20 21 21 23 25 26 27 26 27 25 26 27 25 24 23 24 23 25 26 27 28 27 25 25 26 25
12 13 14 14 15 15 16 16 16 16 17 18 18 19 20 23 20 20 20 20 20 22 23 24 26 26 27 26 26 26 25 25 24 25 24 23 26 24 27 28 28 26 25 25 25
12 12 13 14 15 15 15 16 16 16 17 17 18 19 21 22 18 19 20 19 20 22 23 22 24 25 26 24 23 24 25 25 25 25 25 23 25 25 27 26 26 26 26 26 26
12 12 12 13 14 14 15 15 16 16 17 17 18 17 22 19 18 19 19 19 19 20 21 20 22 23 24 23 24 25 25 26 26 24 23 23 26 29 26 28 26 27 28 27 26
12 12 13 12 13 14 14 14 16 16 17 17 17 19 23 18 19 18 19 21 20 20 20 21 23 23 23 25 25 25 26 26 26 24 24 23 26 28 25 24 25 27 28 28 27
12 12 13 12 13 13 14 15 16 16 16 16 16 20 19 20 17 17 18 19 21 21 22 23 24 24 25 25 25 26 25 26 26 23 22 24 24 26 27 27 26 26 28 28 27
12 12 12 12 12 13 14 14 18 18 17 21 20 19 19 17 17 18 18 20 22 23 23 22 23 23 25 26 26 25 25 25 27 23 22 24 25 26 27 27 27 28 27 27 28
11 11 12 12 12 13 14 17 15 15 19 18 17 17 17 18 19 19 18 21 21 22 22 21 22 25 24 24 23 23 24 25 26 23 21 24 24 26 26 27 27 27 28 28 29
10 11 12 12 12 13 14 15 14 13 17 18 17 18 19 18 20 20 20 21 21 22 21 22 24 23 22 21 22 23 23 25 25 22 22 21 23 26 27 27 26 27 27 27 28
10 10 11 11 11 13 13 14 14 14 18 19 16 18 17 19 19 18 20 21 20 22 22 22 24 21 21 22 22 23 25 23 23 22 23 22 24 27 28 28 28 27 27 28 28
9 10 10 11 11 12 12 13 14 16 16 19 15 15 15 19 18 16 17 19 21 21 21 23 20 20 21 22 22 22 20 21 21 21 22 23 21 25 27 26 27 28 28 28 27
8 9 10 10 11 10 11 12 14 13 14 16 16 16 16 17 16 15 17 18 18 20 19 21 17 20 22 18 21 19 20 20 20 21 21 24 24 26 27 28 29 28 28 28 27
7 8 9 9 10 10 11 12 12 13 17 16 16 15 17 17 17 17 16 17 19 18 19 20 19 18 18 18 18 20 21 21 21 19 21 22 22 25 26 27 26 27 26 28 24
7 7 8 9 10 10 10 11 12 15 18 15 16 15 16 17 17 16 17 18 19 20 20 20 20 19 18 20 20 18 21 21 19 21 23 16 20 25 26 26 24 24 24 24 23
6 7 8 9 9 10 11 11 13 16 17 16 16 16 16 16 17 16 17 18 20 20 19 21 21 19 19 20 22 19 18 22 20 16 18 22 24 26 24 23 24 25 25 24 24
7 8 8 9 9 9 11 12 14 15 15 16 16 17 18 17 16 16 18 19 19 19 19 21 19 18 16 17 18 19 21 18 19 17 18 21 22 24 25 26 26 24 24 24 23
6 8 9 8 9 10 11 12 14 14 15 15 15 14 15 16 17 16 18 17 18 17 18 19 18 16 16 17 19 18 18 18 20 20 19 20 22 26 26 24 24 24 22 21 20
8 8 7 8 10 11 11 13 14 15 15 15 16 16 17 16 15 16 17 18 17 17 16 18 18 17 18 20 19 20 20 20 19 18 19 19 20 25 24 22 21 22 22 20 19
7 8 6 8 10 11 12 13 14 14 14 14 14 15 16 15 14 16 17 17 16 16 12 13 15 13 15 17 15 16 19 18 20 18 16 17 19 23 23 22 22 21 21 21 19
7 7 7 6 11 11 11 11 11 13 14 15 15 15 15 14 15 14 14 13 13 14 11 12 11 13 16 19 19 16 17 18 17 16 17 18 19 21 22 23 23 21 22 23 22
5 8 10 7 7 8 11 12 11 11 12 13 13 13 14 13 13 12 11 12 13 13 13 12 10 11 13 15 16 17 17 17 17 17 16 18 19 21 22 22 23 24 23 23 23
4 5 7 9 10 8 9 10 10 12 12 11 11 13 13 13 14 13 14 14 14 11 14 11 10 12 11 13 14 13 15 15 16 17 17 19 19 22 22 22 22 22 22 22 22
3 3 6 8 8 9 8 9 10 11 12 12 12 12 12 12 13 12 10 9 9 8 8 8 9 10 11 13 10 10 12 15 16 17 18 17 19 20 20 20 20 20 21 20 20

GFSSW_925_temp_072.txt.gz
Temp
13 14 16 15 16 16 17 17 17 17 18 18 18 19 19 20 20 20 22 21 22 22 23 23 24 25 25 26 26 26 24 24 27 29 28 26 26 27 25 26 26 25 25 24 24
14 13 15 16 16 16 16 16 17 17 17 18 18 18 19 19 19 22 21 21 22 22 23 24 25 25 25 26 25 24 23 26 27 26 26 26 27 24 26 25 25 24 21 23 23
12 15 14 15 15 16 16 16 16 17 17 17 18 18 19 20 21 22 21 21 22 22 22 24 25 26 25 27 26 26 25 26 26 24 25 27 27 28 25 25 25 24 21 21 22
11 13 15 15 15 16 16 16 16 17 17 18 18 18 19 19 22 20 21 21 22 22 22 24 25 25 25 24 26 25 27 26 25 23 25 26 26 26 24 26 26 24 23 20 19
11 12 13 15 15 15 16 16 16 17 17 18 19 19 19 21 21 20 20 21 21 21 23 24 24 24 25 26 25 24 26 25 23 23 23 23 23 24 24 24 25 24 23 20 19
12 12 13 13 15 15 16 16 16 17 17 18 18 19 19 21 19 19 20 20 21 21 23 24 25 25 25 26 24 24 25 25 23 23 24 22 23 24 24 23 24 22 22 22 20
13 12 13 13 13 15 15 16 16 17 17 17 18 18 20 20 19 19 20 20 20 22 23 23 24 24 25 24 23 24 24 23 23 23 23 23 21 22 23 24 24 24 21 22 21
12 12 13 13 13 14 15 15 16 17 17 18 18 18 20 19 19 19 20 20 20 21 22 22 23 23 22 23 24 23 24 23 24 22 22 22 21 25 25 24 22 23 22 22 22
12 12 12 13 13 14 14 15 16 16 17 18 18 18 20 19 19 19 20 21 20 20 21 21 23 23 22 22 22 23 21 22 22 22 22 21 22 25 24 24 23 22 22 22 22
12 12 12 13 13 13 14 15 16 16 17 17 17 18 18 19 18 18 19 20 21 20 21 22 21 20 21 21 20 22 22 24 25 21 21 21 19 21 22 22 21 21 22 22 22
11 11 12 12 13 13 15 15 16 16 17 20 19 19 19 17 17 18 19 20 21 21 20 21 20 19 21 22 23 24 23 22 24 21 22 20 20 22 23 22 22 22 22 21 22
11 11 11 13 13 13 14 16 14 14 17 19 18 17 18 18 18 18 19 19 20 19 20 19 18 22 23 23 23 23 22 21 22 20 21 20 20 21 22 22 23 22 22 22 23
10 10 11 12 12 13 14 15 14 14 16 17 18 18 18 17 20 18 18 20 20 19 20 19 22 22 22 21 21 21 21 21 21 21 19 19 18 19 22 22 23 22 23 22 22
9 10 11 12 12 13 14 14 15 14 16 18 16 17 17 18 18 19 19 20 20 19 20 20 21 22 20 21 20 20 21 21 21 20 18 22 16 21 22 23 23 22 20 20 21
8 9 10 11 11 13 13 14 15 14 14 18 15 15 17 18 17 16 17 19 19 19 20 20 19 19 19 20 21 20 20 21 21 19 18 19 16 19 21 23 23 24 22 22 22
8 9 10 10 11 11 12 13 14 13 14 16 15 15 15 16 15 15 16 18 18 20 20 19 18 20 20 17 19 19 20 20 20 18 15 19 18 19 21 24 26 26 26 26 24
7 8 9 9 10 10 11 11 12 13 18 15 15 16 16 16 16 16 15 15 17 17 17 18 18 18 18 17 18 19 19 16 15 14 15 20 19 21 23 24 24 24 22 22 23
7 8 8 9 10 10 11 11 12 14 17 16 16 16 16 17 17 16 15 15 16 18 18 17 17 16 16 18 17 16 18 15 14 15 16 16 16 18 23 24 24 23 20 19 21
6 7 8 9 10 10 11 10 12 15 18 16 16 16 16 16 16 16 16 17 17 17 17 18 19 18 17 19 19 17 16 19 16 9 12 16 19 21 21 22 22 20 20 19 19
6 8 9 9 9 10 10 11 13 15 16 17 16 17 16 16 15 15 16 18 17 18 18 19 17 17 15 17 17 17 18 16 14 13 13 16 17 19 20 22 21 20 19 18 17
6 7 9 8 9 9 10 12 14 14 15 15 16 15 16 17 16 16 17 16 18 17 18 18 16 14 15 15 16 15 16 17 17 15 13 15 17 22 20 20 19 19 19 18 17
7 7 7 8 9 10 10 12 13 15 15 15 15 16 16 15 15 16 17 16 17 16 16 17 16 13 15 17 15 17 17 17 14 15 13 14 18 21 19 20 20 19 19 19 18
7 8 6 7 8 9 11 12 13 14 14 14 14 15 16 14 13 14 14 12 14 13 12 14 14 10 13 16 15 15 16 17 17 14 15 14 17 19 19 20 20 21 20 18 18
6 6 7 6 8 9 11 11 11 13 13 14 14 15 14 14 15 15 14 12 12 12 11 13 11 12 13 16 15 14 13 15 16 13 15 15 17 19 19 18 19 18 17 16 17
4 7 8 6 6 7 9 11 11 11 12 13 13 13 14 13 13 13 13 11 12 12 12 10 10 11 12 12 12 12 12 13 13 13 15 16 16 18 19 18 18 19 18 18 18
4 5 7 7 8 7 8 9 10 11 11 11 11 12 13 12 13 13 13 12 13 10 12 9 9 10 9 11 12 12 12 13 13 14 14 15 15 18 18 18 18 18 18 17 17
4 3 4 7 7 8 7 8 10 11 11 12 12 11 11 12 11 10 9 9 9 8 8 8 9 9 9 10 9 9 10 12 13 14 14 14 16 17 16 17 17 17 17 17 17

GFSSW_925_temp_075.txt.gz
Temp
11 12 15 15 15 16 16 17 17 17 17 18 18 19 19 20 20 20 21 21 22 22 23 23 23 24 25 24 24 23 20 21 24 25 24 24 25 25 24 23 24 23 21 22 22
11 11 15 14 15 16 16 16 17 17 17 18 18 19 19 20 19 20 21 21 22 22 23 23 23 24 21 23 22 20 19 23 24 24 24 24 24 23 25 23 23 22 21 22 22
11 11 12 15 15 15 16 16 17 17 17 18 18 19 19 20 19 20 20 21 22 22 23 23 24 23 23 23 23 22 21 24 23 23 23 24 25 22 23 23 22 21 19 19 20
11 11 11 13 15 15 15 16 17 17 18 18 19 19 19 19 21 20 20 21 21 22 23 23 24 23 23 23 23 24 24 25 24 22 24 24 22 24 22 23 24 22 19 18 17
11 11 12 12 14 15 16 16 17 17 17 18 19 19 19 19 20 20 20 21 21 22 22 23 23 23 23 23 23 23 24 23 21 22 22 22 22 23 22 21 21 20 19 18 17
11 11 12 12 14 15 15 16 16 17 18 18 18 19 19 20 19 19 20 20 21 21 22 23 23 23 24 23 22 22 23 23 22 22 22 22 21 22 22 21 21 20 17 16 16
11 11 12 13 13 14 15 16 16 17 17 18 18 18 18 20 19 19 20 20 21 21 22 22 23 23 23 23 22 22 22 22 21 21 22 21 21 20 19 23 22 19 18 17 17
11 11 12 14 14 14 15 15 16 16 17 18 18 18 18 19 18 19 20 20 20 21 22 22 23 21 22 21 22 22 21 21 21 20 21 21 19 22 21 20 20 19 17 17 18
11 11 12 13 14 14 14 15 16 16 17 17 17 18 19 18 18 19 20 20 20 21 21 22 22 20 21 18 18 20 19 20 22 21 20 20 20 21 20 22 21 18 18 18 17
11 11 11 12 13 13 14 15 15 16 17 17 17 18 17 18 18 18 20 20 20 19 20 21 18 17 16 16 17 19 20 21 21 20 20 19 17 18 18 20 19 18 18 18 18
11 11 12 12 12 13 15 15 14 14 16 16 17 18 17 17 17 18 19 20 20 20 18 20 17 16 17 17 20 21 21 20 21 20 20 18 17 18 18 18 17 17 16 17 18
11 11 12 12 13 13 14 14 14 14 15 16 17 17 18 18 17 17 19 18 18 17 18 17 17 18 19 20 20 21 21 20 20 20 20 19 18 18 18 19 21 20 18 17 18
10 11 12 12 12 14 14 14 14 14 15 17 16 16 16 17 18 16 17 18 18 17 17 16 19 18 20 21 21 21 20 20 20 19 19 17 16 17 19 18 19 18 18 18 18
8 10 11 12 12 13 14 14 14 15 14 16 15 16 16 16 18 17 18 19 19 17 17 17 19 20 19 19 19 20 19 20 20 18 17 18 15 16 20 21 21 20 18 18 17
7 8 10 11 11 13 13 14 14 14 11 16 15 15 15 17 16 16 16 18 17 17 17 17 18 18 18 19 19 18 19 20 20 18 17 17 15 15 17 19 19 20 19 18 17
8 9 10 10 11 11 13 14 15 13 12 15 13 14 15 16 15 15 16 17 18 19 17 17 17 19 18 16 19 17 18 17 16 15 14 15 16 16 19 21 22 24 23 20 21
7 8 9 9 10 10 11 11 12 13 16 14 13 14 15 14 14 15 14 15 15 16 16 17 17 17 17 16 16 18 16 14 14 12 14 15 16 17 19 21 23 24 22 20 21
7 8 8 9 10 10 11 10 12 12 15 15 14 14 14 14 14 14 14 13 15 16 14 15 15 16 16 17 16 15 16 13 13 13 14 14 16 19 18 22 22 22 19 17 16
6 7 8 9 10 10 10 10 11 12 15 14 14 14 14 15 14 15 13 13 14 15 16 15 16 16 15 17 17 15 15 16 15 6 10 14 15 18 18 20 18 16 16 15 15
5 7 8 9 9 10 10 10 11 13 14 15 15 15 13 14 14 14 14 15 16 15 16 17 17 14 15 17 16 16 16 15 12 12 12 14 15 17 18 19 18 17 17 16 15
5 5 8 9 9 10 11 10 12 14 14 14 14 15 15 14 13 13 14 15 15 16 15 16 15 14 15 14 14 14 15 16 15 12 12 12 15 15 18 18 19 19 17 18 17
5 5 8 8 8 9 10 12 13 13 13 13 14 14 14 14 14 14 14 13 12 15 15 15 14 11 14 15 15 16 15 15 13 13 12 12 17 17 16 19 17 18 18 18 17
4 5 7 7 7 7 10 11 12 12 12 13 13 14 14 13 13 14 12 11 11 11 12 13 12 8 12 14 14 15 15 16 16 11 13 11 17 17 16 15 15 17 16 16 15
3 4 5 6 6 7 9 10 10 11 12 13 13 14 13 12 13 13 12 12 11 11 11 12 11 11 11 12 13 12 11 12 13 9 13 14 15 17 16 15 15 14 16 16 15
4 4 5 5 4 7 7 9 9 10 11 11 12 12 13 12 12 12 11 11 11 11 10 11 10 10 11 11 12 11 11 11 12 12 12 14 14 15 16 16 16 15 15 15 15
4 4 3 5 6 5 6 7 8 10 10 10 10 11 11 11 12 11 11 11 11 10 10 9 7 10 9 10 11 10 10 11 12 12 13 14 13 16 16 15 14 14 14 14 15
3 3 4 4 6 5 6 6 8 10 10 10 10 10 10 10 10 8 8 8 9 8 8 9 8 8 5 9 9 7 10 10 11 12 13 13 14 15 14 13 11 11 11 10 10